This is the latest recevied weather packets stored in our database for station/object IU1OLT-5. If no packets are shown the sender has not sent any weather packets the latest 10 day(s).
| Time | Temp. | Humidity | Pressure | Rain* | Wind** | Luminosity | Snow |
|---|---|---|---|---|---|---|---|
| 1777573551 | 16.11° C | 43% | 1020.7 hPa | 0 mm | - | 2 W/m² | - |
| 1777572651 | 16.67° C | 43% | 1020.3 hPa | 0 mm | - | 8 W/m² | - |
| 1777571751 | 17.22° C | 39% | 1020.3 hPa | 0 mm | - | 17 W/m² | - |
| 1777570850 | 17.78° C | 38% | 1020.2 hPa | 0 mm | - | 26 W/m² | - |
| 1777569950 | 18.33° C | 40% | 1020 hPa | 0 mm | - | 41 W/m² | - |
| 1777569050 | 18.33° C | 40% | 1020 hPa | 0 mm | - | 57 W/m² | - |
| 1777568150 | 19.44° C | 42% | 1020.2 hPa | 0 mm | - | 79 W/m² | - |
| 1777567249 | 20° C | 44% | 1020.1 hPa | 0 mm | - | 104 W/m² | - |
| 1777566349 | 20.56° C | 43% | 1020 hPa | 0 mm | - | 128 W/m² | - |
| 1777565449 | 20.56° C | 43% | 1020 hPa | 0 mm | - | 160 W/m² | - |
| 1777564549 | 21.11° C | 44% | 1020 hPa | 0 mm | - | 199 W/m² | - |
| 1777563649 | 20.56° C | 44% | 1020 hPa | 0 mm | - | 243 W/m² | - |
| 1777562748 | 20.56° C | 45% | 1019.9 hPa | 0 mm | - | 75 W/m² | - |
| 1777561848 | 21.67° C | 46% | 1019.8 hPa | 0 mm | - | 327 W/m² | - |
| 1777560948 | 21.67° C | 46% | 1019.7 hPa | 0 mm | - | 282 W/m² | - |
| 1777560048 | 22.78° C | 43% | 1019.9 hPa | 0 mm | - | 400 W/m² | - |
| 1777559148 | 22.78° C | 41% | 1019.8 hPa | 0 mm | - | 445 W/m² | - |
| 1777558248 | 23.33° C | 43% | 1020 hPa | 0 mm | - | 473 W/m² | - |
| 1777557348 | 23.33° C | 41% | 1020 hPa | 0 mm | - | 515 W/m² | - |
| 1777556447 | 22.22° C | 45% | 1020 hPa | 0 mm | - | 563 W/m² | - |
| 1777555547 | 22.78° C | 43% | 1020 hPa | 0 mm | - | 336 W/m² | - |
| 1777554647 | 22.78° C | 45% | 1020.4 hPa | 0 mm | - | 636 W/m² | - |
| 1777553747 | 22.78° C | 43% | 1020.2 hPa | 0 mm | - | 682 W/m² | - |
| 1777552846 | 23.89° C | 45% | 1020.5 hPa | 0 mm | - | 699 W/m² | - |
| 1777551946 | 23.33° C | 48% | 1020.7 hPa | 0 mm | - | 697 W/m² | - |
* Rain latest hour (hover to see other rain measurements)
** Current wind speed in m/s (hover to see current wind gust speed)